Location: Maccacari
(45.1333°N, 11.1333°E)
Time: 15:25:10
(UTC+00:00)

Altair - Visible Passes

Search period start: 23 January 2021 00:00
Search period end: 02 February 2021 00:00
Orbit: 1501 x 1682 km, 47.2° (Epoch: 22 January)

Date Brightness Start Highest point End Pass type
(mag) Time Alt. Az. Time Alt. Az. Time Alt. Az.
23 Jan 8.7 03:27:55 19° S 03:34:12 37° SE 03:43:09 10° ENE visible
23 Jan 7.8 05:28:08 10° WSW 05:38:14 81° SSE 05:48:26 10° ENE visible
24 Jan 8.7 03:05:00 25° S 03:09:06 34° SE 03:17:50 10° ENE visible
24 Jan 7.8 05:03:04 10° WSW 05:13:01 78° SSE 05:23:12 10° ENE visible
25 Jan 8.7 02:41:52 29° SSE 02:44:01 32° SE 02:52:30 10° ENE visible
25 Jan 7.8 04:39:57 19° SW 04:47:49 75° SSE 04:57:58 10° ENE visible
26 Jan 8.8 02:18:36 29° SE 02:18:57 29° SE 02:27:08 10° ENE visible
26 Jan 7.8 04:16:40 28° SW 04:22:38 72° SSE 04:32:44 10° ENE visible
27 Jan 9.0 01:55:13 26° ESE 01:55:13 26° ESE 02:01:43 10° ENE visible
27 Jan 7.8 03:53:15 40° SW 03:57:25 68° SSE 04:07:30 10° ENE visible
27 Jan 7.7 05:52:14 10° W 06:02:25 81° N 06:12:39 10° E visible
28 Jan 9.2 01:31:43 21° ESE 01:31:43 21° ESE 01:36:17 10° E visible
28 Jan 7.8 03:29:46 52° SSW 03:32:15 65° SSE 03:42:16 10° ENE visible
28 Jan 7.7 05:27:48 13° W 05:37:09 82° N 05:47:24 10° E visible
29 Jan 9.5 01:08:08 16° E 01:08:08 16° E 01:10:49 10° E visible
29 Jan 7.7 03:06:10 60° S 03:07:05 62° SSE 03:17:01 10° ENE visible
29 Jan 7.6 05:04:12 20° W 05:11:53 83° N 05:22:09 10° E visible
30 Jan 9.7 00:44:29 12° E 00:44:29 12° E 00:45:16 10° E visible
30 Jan 7.9 02:42:31 57° SE 02:42:31 57° SE 02:51:46 10° ENE visible
30 Jan 7.6 04:40:33 29° W 04:46:38 84° NNW 04:56:54 10° ENE visible
31 Jan 8.2 02:18:48 48° ESE 02:18:48 48° ESE 02:26:31 10° ENE visible
31 Jan 7.6 04:16:50 39° W 04:21:23 86° NNW 04:31:39 10° ENE visible
01 Feb 8.5 01:55:03 38° E 01:55:03 38° E 02:01:16 10° ENE visible
01 Feb 7.5 03:53:04 52° WSW 03:56:09 88° NNW 04:06:24 10° ENE visible
01 Feb 7.8 05:51:21 10° W 06:01:32 82° N 06:11:45 10° E visible
